Location: ???? ?????
(37.9132°N, 22.9869°E)
Time: 17:58:38
(UTC+00:00)

Cosmos 2369 Rocket - Pass Details

Date: 04 August 2024
Orbit: 826 x 853 km, 71.0° (Epoch: 19 September)

Event Time Altitude Azimuth Distance (km) Brightness Sun altitude
Rises 18:01:07 0° 185° (S) 3,349 5.1 -5.8°
Reaches altitude 10° 18:03:36 10° 179° (S) 2,422 4.3 -6.2°
Maximum altitude 18:08:54 48° 107° (ESE) 1,072 2.4 -7.1°
Drops below altitude 10° 18:14:17 10° 34° (NE) 2,452 4.6 -8.1°
Sets 18:16:48 0° 29° (NNE) 3,394 5.4 -8.5°
